Regional Weather Roundup
Issued by NWS

Home | Current Version | Previous Version | Text Only | Print | Product List | Glossary Off
Versions: 1 2 3 4 5 6 7 8 9 10 11 12 13 14 15 16 17 18 19 20 21 22 23 24 25 26 27 28 29 30 31 32 33 34 35 36 37 38 39 40 41 42 43 44 45 46 47 48 49 50

000
ASUS43 KLOT 301600
RWRIL

ILLINOIS REGIONAL WEATHER ROUNDUP
NATIONAL WEATHER SERVICE CHICAGO/ROMEOVILLE IL
1100 AM CDT WED JUL 30 2014

NOTE: "FAIR" INDICATES FEW OR NO CLOUDS BELOW 12,000 FEET WITH NO
SIGNIFICANT WEATHER AND/OR OBSTRUCTIONS TO VISIBILITY.

* THESE STATIONS ARE NOT UNDER NWS QUALITY CONTROL. THEY ALSO MAY NOT
  REPORT WEATHER SUCH AS PRECIPITATION OR FOG.

ILZ001-002-007-009-015-016-024-301700-
NORTHWEST ILLINOIS

CITY           SKY/WX    TMP DP  RH WIND       PRES   REMARKS
MOLINE         FAIR      75  59  57 W6        30.08S
STERLING*      FAIR      75  61  60 NW8       30.08R
$$

ILZ003-004-008-010-011-017-018-301700-
NORTH CENTRAL ILLINOIS

CITY           SKY/WX    TMP DP  RH WIND       PRES   REMARKS
ROCKFORD       FAIR      74  57  55 W9        30.07S
$$

ILZ005-006-012>014-019>023-301700-
NORTHEAST ILLINOIS

CITY           SKY/WX    TMP DP  RH WIND       PRES   REMARKS
CHICAGO-OHARE  FAIR      73  54  51 NW9       30.05R
CHICAGO-MIDWAY FAIR      75  57  53 W5        30.04S
AURORA         FAIR      72  60  66 NW6       30.06S
WAUKEGAN       FAIR      70  57  63 VRB3      30.04S
DUPAGE AIRPORT FAIR      74  57  55 NW6       30.05S
WHEELING       FAIR      74  57  55 NW7       30.06S
NORTHERLY ISL    N/A     68  59  73 NE7         N/A
$$

LMZ740>746-301700-
SOUTHERN LAKE MICHIGAN

STATION/POSITION SKY/WX   TEMP    WIND        PRES    VSBY  WAVE
                          AIR SEA DIR/SP/G                  HT/PER
                          (F)     (DEG/KT/KT) (MB)    (MI)  (FT/S)
SOUTHERN BUOY              60 60  310/  6/  8 1017.2R         1
WAUKEGAN HARBOR            64      70/  7/  7   N/A
HARRISON CRIB              65      10/  8/  9   N/A
BURNHAM HARBOR             68      30/  4/  7   N/A
CALUMET HARBOR             69      20/  5/  7 1016.3R
MICHIGAN CITY              66     280/  7/  9   N/A
MICHIGAN CITY 6N           65 68  290/  4/  6   N/A           1/ 3
ST. JOSEPH                 64 68  260/  6/  8   N/A           1/ 3
$$

ILZ025>027-034>036-040-047-049-050-058-095>099-301700-
WEST-CENTRAL ILLINOIS

CITY           SKY/WX    TMP DP  RH WIND       PRES   REMARKS
QUINCY         FAIR      76  57  51 NW5       30.11S
$$

ILZ028>032-037-038-041>044-048-051>054-059>061-301700-
CENTRAL ILLINOIS

CITY           SKY/WX    TMP DP  RH WIND       PRES   REMARKS
DECATUR        FAIR      77  59  53 W9        30.09S
PEORIA         FAIR      78  59  51 NW5       30.09R
SPRINGFIELD    FAIR      79  61  53 NW6       30.10S HX  80
TAYLORVILLE    NOT AVBL
$$

ILZ033-039-045-046-055>057-062-063-301700-
EAST-CENTRAL ILLINOIS

CITY           SKY/WX    TMP DP  RH WIND       PRES   REMARKS
CHAMPAIGN      FAIR      73  64  73 W7        30.09R
MATTOON        FAIR      75  61  61 W8        30.09R
$$

ILZ079-100>102-301700-
SOUTHWEST ILLINOIS

CITY           SKY/WX    TMP DP  RH WIND       PRES   REMARKS
ALTON          MOSUNNY   77  57  50 CALM      30.11R
BELLEVILLE     PTSUNNY   79  57  46 CALM      30.10R HX  80
CAHOKIA*       FAIR      81  57  43 SE3       30.10S HX  81
$$

ILZ064>066-069>071-074>076-080>082-084>086-088>090-092>094-301700-
SOUTH-CENTRAL ILLINOIS

CITY           SKY/WX    TMP DP  RH WIND       PRES   REMARKS
CARBONDALE     CLOUDY    76  59  55 NW6       30.12R
MARION         PTSUNNY   77  59  53 SW12      30.13R
MT. VERNON     FAIR      77  57  50 W3        30.12R
$$

ILZ067-068-072-073-078-083-087-091-301700-
SOUTHEAST ILLINOIS

CITY           SKY/WX    TMP DP  RH WIND       PRES   REMARKS
LAWRENCEVILLE  FAIR      76  61  59 W8        30.10S
$$

ABBREVIATIONS USED IN REMARKS
   TC - TEMPERATURE IN CELSIUS
  WCI - WIND CHILL INDEX
   HX - HEAT INDEX
  VSB - VISIBILITY
$$




USA.gov is the U.S. government's official web portal to all federal, state and local government web resources and services.